TimeMDT,TemperatureF,Dew PointF,Humidity,Sea Level PressureIn,VisibilityMPH,Wind Direction,Wind SpeedMPH,Gust SpeedMPH,PrecipitationIn,Events,Conditions,WindDirDegrees,DateUTC
12:15 AM,46.4,32.0,57,29.88,10.0,ENE,10.4,-,N/A,,Overcast,60,2013-03-21 06:15:00
12:35 AM,46.4,32.2,58,29.88,10.0,East,4.6,-,N/A,,Overcast,100,2013-03-21 06:35:00
12:55 AM,45.9,32.0,58,29.86,10.0,East,6.9,-,N/A,,Overcast,90,2013-03-21 06:55:00
1:15 AM,46.0,32.0,58,29.85,10.0,East,8.1,-,N/A,,Overcast,80,2013-03-21 07:15:00
1:35 AM,46.0,32.4,59,29.83,10.0,NE,16.1,-,N/A,,Overcast,50,2013-03-21 07:35:00
1:55 AM,46.6,32.0,57,29.83,10.0,ENE,9.2,-,N/A,,Overcast,60,2013-03-21 07:55:00
2:15 AM,46.8,32.0,57,29.83,10.0,ESE,4.6,-,N/A,,Overcast,110,2013-03-21 08:15:00
2:35 AM,46.0,32.9,60,29.83,10.0,SE,4.6,-,N/A,,Overcast,130,2013-03-21 08:35:00
2:55 AM,45.3,32.9,62,29.82,10.0,ENE,3.5,-,N/A,,Overcast,60,2013-03-21 08:55:00
3:15 AM,45.0,33.1,63,29.81,10.0,NE,5.8,-,N/A,,Overcast,40,2013-03-21 09:15:00
3:35 AM,45.5,32.9,61,29.79,10.0,NE,9.2,-,N/A,,Overcast,50,2013-03-21 09:35:00
3:55 AM,45.3,34.7,66,29.79,10.0,NNE,8.1,-,N/A,Rain,Light Rain,30,2013-03-21 09:55:00
4:15 AM,45.0,36.5,72,29.79,10.0,North,12.7,-,N/A,Rain,Light Rain,10,2013-03-21 10:15:00
4:35 AM,45.3,37.4,74,29.77,10.0,NNE,12.7,-,N/A,,Overcast,20,2013-03-21 10:35:00
4:55 AM,44.6,38.5,79,29.78,10.0,North,8.1,-,N/A,Rain,Light Rain,360,2013-03-21 10:55:00
5:15 AM,44.2,38.7,81,29.79,10.0,North,9.2,-,N/A,Rain,Light Rain,10,2013-03-21 11:15:00
5:35 AM,44.8,37.9,77,29.79,10.0,West,3.5,-,N/A,Rain,Light Rain,280,2013-03-21 11:35:00
5:55 AM,44.2,39.4,83,29.78,10.0,East,3.5,-,N/A,Rain,Light Rain,90,2013-03-21 11:55:00
6:15 AM,43.9,39.4,84,29.78,10.0,ESE,3.5,-,N/A,Rain,Light Rain,120,2013-03-21 12:15:00
6:35 AM,42.6,39.9,90,29.78,10.0,ENE,3.5,-,N/A,,Overcast,60,2013-03-21 12:35:00
6:55 AM,42.1,39.7,91,29.79,10.0,SE,3.5,-,N/A,,Overcast,130,2013-03-21 12:55:00
7:15 AM,41.4,38.8,91,29.79,10.0,East,4.6,-,N/A,,Scattered Clouds,100,2013-03-21 13:15:00
7:35 AM,40.1,37.6,91,29.79,10.0,NE,5.8,-,N/A,,Scattered Clouds,50,2013-03-21 13:35:00
7:55 AM,41.0,38.8,92,29.79,10.0,NNE,4.6,-,N/A,,Mostly Cloudy,30,2013-03-21 13:55:00
8:15 AM,41.9,38.8,89,29.78,10.0,North,4.6,-,N/A,Rain,Light Rain,10,2013-03-21 14:15:00
8:55 AM,44.1,38.5,81,29.78,10.0,NNE,3.5,-,N/A,Rain,Light Rain,30,2013-03-21 14:55:00
9:15 AM,45.0,39.2,80,29.77,10.0,ENE,4.6,-,N/A,,Mostly Cloudy,70,2013-03-21 15:15:00
9:35 AM,46.4,39.4,77,29.75,10.0,NE,6.9,-,N/A,,Mostly Cloudy,40,2013-03-21 15:35:00
9:55 AM,46.9,39.2,74,29.75,10.0,North,8.1,-,N/A,,Mostly Cloudy,10,2013-03-21 15:55:00
10:15 AM,48.9,40.5,73,29.74,10.0,NE,10.4,-,N/A,,Mostly Cloudy,40,2013-03-21 16:15:00
10:35 AM,50.4,40.6,69,29.74,10.0,NNE,10.4,-,N/A,,Scattered Clouds,20,2013-03-21 16:35:00
10:55 AM,50.9,38.5,62,29.72,10.0,NE,6.9,-,N/A,,Mostly Cloudy,40,2013-03-21 16:55:00
11:15 AM,47.1,38.5,72,29.73,7.0,NW,6.9,24.2,N/A,Rain,Light Rain,310,2013-03-21 17:15:00
11:35 AM,50.2,36.9,60,29.74,10.0,WNW,17.3,27.6,N/A,Thunderstorm,Mostly Cloudy,290,2013-03-21 17:35:00
11:55 AM,52.2,35.1,52,29.71,10.0,West,23.0,28.8,N/A,Thunderstorm,Scattered Clouds,270,2013-03-21 17:55:00
12:15 PM,55.9,32.4,41,29.71,10.0,West,29.9,35.7,N/A,,Mostly Cloudy,270,2013-03-21 18:15:00
12:35 PM,52.9,33.1,47,29.74,10.0,WNW,41.4,50.6,N/A,,Mostly Cloudy,300,2013-03-21 18:35:00
12:55 PM,51.3,31.6,47,29.74,10.0,WNW,21.9,36.8,N/A,,Scattered Clouds,290,2013-03-21 18:55:00
1:15 PM,54.0,27.3,36,29.75,10.0,West,31.1,36.8,N/A,,Clear,280,2013-03-21 19:15:00
1:35 PM,53.6,26.2,35,29.75,10.0,West,33.4,41.4,N/A,Thunderstorm,Clear,280,2013-03-21 19:35:00
1:55 PM,53.6,25.9,34,29.75,10.0,West,26.5,33.4,N/A,,Clear,280,2013-03-21 19:55:00
2:15 PM,54.3,24.3,31,29.75,10.0,West,28.8,36.8,N/A,,Clear,280,2013-03-21 20:15:00
2:35 PM,54.5,18.9,25,29.75,10.0,West,25.3,38.0,N/A,,Clear,280,2013-03-21 20:35:00
2:55 PM,55.4,19.9,25,29.75,10.0,WNW,20.7,29.9,N/A,,Clear,290,2013-03-21 20:55:00
3:15 PM,54.7,19.0,25,29.76,10.0,WNW,16.1,29.9,N/A,,Clear,300,2013-03-21 21:15:00
3:35 PM,55.2,17.1,22,29.76,10.0,WNW,16.1,23.0,N/A,,Clear,300,2013-03-21 21:35:00
3:55 PM,55.9,17.2,22,29.77,10.0,NW,12.7,19.6,N/A,,Clear,310,2013-03-21 21:55:00
4:15 PM,55.4,15.3,21,29.77,10.0,West,11.5,28.8,N/A,,Scattered Clouds,270,2013-03-21 22:15:00
4:35 PM,55.4,11.5,17,29.77,10.0,West,5.8,17.3,N/A,,Clear,280,2013-03-21 22:35:00
4:55 PM,55.8,13.8,19,29.78,10.0,WNW,13.8,26.5,N/A,,Scattered Clouds,300,2013-03-21 22:55:00
5:15 PM,54.1,6.6,15,29.78,10.0,West,6.9,25.3,N/A,,Scattered Clouds,280,2013-03-21 23:15:00
5:35 PM,54.9,3.7,13,29.79,10.0,NW,12.7,19.6,N/A,,Clear,320,2013-03-21 23:35:00
5:55 PM,54.0,2.7,12,29.79,10.0,NW,11.5,24.2,N/A,,Clear,310,2013-03-21 23:55:00
6:15 PM,54.0,2.3,12,29.81,10.0,NW,13.8,19.6,N/A,,Clear,320,2013-03-22 00:15:00
6:35 PM,53.1,1.8,12,29.82,10.0,NW,11.5,-,N/A,,Clear,310,2013-03-22 00:35:00
6:55 PM,52.0,1.8,13,29.83,10.0,NW,10.4,-,N/A,,Clear,320,2013-03-22 00:55:00
7:15 PM,50.7,0.7,13,29.83,10.0,NW,11.5,17.3,N/A,,Clear,310,2013-03-22 01:15:00
7:35 PM,49.5,0.1,13,29.84,10.0,WNW,10.4,-,N/A,,Clear,300,2013-03-22 01:35:00
7:55 PM,48.0,1.4,15,29.85,10.0,WNW,4.6,-,N/A,,Clear,290,2013-03-22 01:55:00
8:15 PM,47.5,0.9,15,29.85,10.0,NW,4.6,-,N/A,,Clear,310,2013-03-22 02:15:00
8:35 PM,43.2,6.6,22,29.85,10.0,NNW,3.5,-,N/A,,Clear,330,2013-03-22 02:35:00
8:55 PM,42.8,5.7,22,29.85,10.0,NW,5.8,-,N/A,,Clear,320,2013-03-22 02:55:00
9:15 PM,44.6,2.5,18,29.86,10.0,NW,6.9,-,N/A,,Clear,310,2013-03-22 03:15:00
9:35 PM,42.1,6.3,23,29.86,10.0,NW,5.8,-,N/A,,Clear,320,2013-03-22 03:35:00
9:55 PM,38.8,6.8,27,29.86,10.0,SE,4.6,-,N/A,,Clear,140,2013-03-22 03:55:00
10:15 PM,37.8,7.5,29,29.88,10.0,Calm,Calm,-,N/A,,Clear,0,2013-03-22 04:15:00
10:35 PM,36.5,10.0,34,29.89,10.0,ESE,3.5,-,N/A,,Clear,110,2013-03-22 04:35:00
10:55 PM,34.0,14.5,45,29.89,10.0,ENE,3.5,-,N/A,,Clear,70,2013-03-22 04:55:00
11:15 PM,34.0,14.4,45,29.90,10.0,ENE,4.6,-,N/A,,Clear,70,2013-03-22 05:15:00
11:35 PM,32.9,16.0,50,29.89,10.0,NE,3.5,-,N/A,,Clear,40,2013-03-22 05:35:00
11:55 PM,33.8,16.2,49,29.89,10.0,NNE,5.8,-,N/A,,Clear,20,2013-03-22 05:55:00